Terminal Aerodrome Forecast
Issued by NWS Raleigh/Durham, NC

Home | Current Version | Previous Version | Text Only | Print | Product List | Glossary On
Versions: 1 2 3 4 5 6 7 8 9 10 11 12 13 14 15 16 17 18 19 20 21 22 23 24 25 26 27 28 29 30 31 32 33 34 35 36 37 38 39 40 41 42 43 44 45 46
000
FTUS42 KRAH 251738
TAFGSO
TAF
KGSO 251738Z 2518/2618 07005KT P6SM FEW035 SCT060 OVC150
     FM260000 02007KT P6SM SCT035 OVC080
     FM260500 01010KT P6SM -RA FEW008 OVC035
     FM261100 36010G15KT 3SM -RA BR OVC006=

USA.gov is the U.S. government's official web portal to all federal, state and local government web resources and services.